Weather in Klaten

Indonesia     7°41′37″S   110°36′46″E
temp.,
°C
wind,
m/s
gust,
m/s
humid.,
%
clouds,
%
prec.,
mm/h
press.,
hPa
HPBL,
m
11 may, tue
tue1101:00+23nw019314 0.0 101011
04:00+22nw01913 0.0 100911
07:00+25w00800 0.0 1011129
10:00+30se22614 0.0 10101034
13:00+32sse325241 0.0 10071623
16:00+27sse467786 0.2 1007427
19:00+25wsw238570 0.3 1009207
22:00+24w248842 0.1 1010151
12 may, wed
wed1201:00+23w22948 0.1 100956
04:00+22w12959 0.0 100939
07:00+24wsw118645 0.0 1010189
10:00+29sse226315 0.1 10091149
13:00+31sse545594 0.2 10061486
16:00+28sse5671100 0.3 1006746
19:00+25wnw2281100 0.4 100990
22:00+23wnw239079 0.0 101076
13 may, thu
thu1301:00+22w2293100 0.0 100838
04:00+22wnw119486 0.0 100816
07:00+24w118524 0.0 1009169
10:00+30sse116291 0.0 10091163
13:00+32sse3250100 0.1 10051857
16:00+27sse467298 0.1 1005356
19:00+24w228596 0.3 100834
22:00+24w118973 0.0 100922
14 may, fri
fri1401:00+23w119215 0.0 100816
04:00+22w119430 0.0 100721
07:00+24w1185100 0.0 1009144
10:00+28s1167100 0.0 1009779
13:00+32se2251100 0.0 10051561
16:00+28se5770100 0.1 1005347
19:00+25ssw0187100 0.9 100734
22:00+24ne0189100 0.1 100924
15 may, sat
sat1501:00+23ese0192100 0.1 100715
04:00+23w01937 0.0 100711
07:00+24wsw11875 0.0 1008197
10:00+30se336333 0.1 10081178
13:00+30sse546299 0.3 10051051
16:00+28se567325 1.0 1005707
19:00+24w12887 1.2 100740
22:00+23wnw22935 0.0 100839